"Pseudo-MPEC" for C0VWJP5

Created 2024 Dec 4 19:31:08 UT using Find_Orb

Click here for an explanation of pseudo-MPECs

 
 Astrometry: 
     C0VWJP5* C2024 12 01.35777105 51 53.838+02 36 06.26   ~C19l 22.62GVNEOCPV00
     C0VWJP5  C2024 12 01.36338005 51 55.746+02 35 18.17   ~C19l 22.29GVNEOCPV00
     C0VWJP5  C2024 12 01.36904405 51 57.640+02 34 30.86   ~C19l 22.79GVNEOCPV00
     C0VWJP5  C2024 12 01.37464305 51 59.504+02 33 42.62   ~C19l 22.40GVNEOCPV00
     C0VWJP5  C2024 12 01.41132505 52 11.880+02 28 30.50   ~C1B2       VNEOCP291
     C0VWJP5  C2024 12 01.42064005 52 15.090+02 27 11.20   ~C1B2 22.7 RVNEOCP291
     C0VWJP5  C2024 12 01.43002005 52 18.300+02 25 51.80   ~C1B2       VNEOCP291
     C0VWJP5 mC2024 12 01.48258105 52 36.332+02 18 25.09   ~C1C2 22.43GVNEOCPV00
     C0VWJP5 mC2024 12 01.48355405 52 36.689+02 18 16.81   ~C1C2 22.57GVNEOCPV00
     C0VWJP5 mC2024 12 01.48549305 52 37.362+02 18 00.36   ~C1C2 22.59GVNEOCPV00
     C0VWJP5  C2024 12 02.28464005 57 45.470+00 25 41.80   ~C282       VNEOCP291
     C0VWJP5  C2024 12 02.29510005 57 48.960+00 24 14.50   ~C282 22.4 RVNEOCP291
     C0VWJP5  C2024 12 02.30553005 57 52.410+00 22 46.80   ~C282       VNEOCP291
     C0VWJP5 mC2024 12 04.33317906 10 08.868-04 13 33.71   ~C48V 22.65GVNEOCPV00
     C0VWJP5 mC2024 12 04.33512206 10 09.476-04 13 49.37   ~C48V 22.78GVNEOCPV00
     C0VWJP5 mC2024 12 04.33609206 10 09.818-04 13 56.64   ~C48V 21.87GVNEOCPV00

Station data:
(291) LPL/Spacewatch II  (N31.961669 W111.599905)  US/Arizona.  Observers J.
   V. Scotti, R. S. McMillan. 1.8-m f/2.7 reflector + CCD.
(V00) Kitt Peak-Bok  (N31.963125 W111.600190)  US/Arizona.  Observers T. A.
   Pruyne, B. M. Africano, E. J. Christensen, G. A. Farneth, D. C. Fuls, A.
   R. Gibbs, A. D. Grauer, H. Gröller, J. A. Johnson, R. A. Kowalski, S. M.
   Larson, G. J. Leonard, D. Rankin, R. L. Seaman, F. C. Shelly, K. W.
   Wierzchoś. 2.25-m reflector + 4x4K mosaic CCD.

Orbital elements:  C0VWJP5
   Perihelion 2024 Dec 13.86331 +/- 0.0237 TT = 20:43:09 (JD 2460658.36331)
Epoch 2024 Dec  4.0 TT = JDT 2460648.5   Earth MOID: 0.0705      AutoNEOCP
M 355.06662175 +/- 0.030            (J2000 ecliptic)
n   0.50017474 +/- 0.00201          Peri.  202.45091 +/- 0.023
a   1.57176715 +/- 0.00421          Node   241.42949 +/- 0.0050
e   0.3353690 +/- 0.00161           Incl.    8.97213 +/- 0.034
P   1.971/719.735d         H 27.13  G  0.15   U  8.6
q 1.04464511 +/- 0.000267    Q 2.09888918 +/- 0.00815
From 16 observations 2024 Dec. 1-4; mean residual 0".27
Residuals in arcseconds: 
241201 V00  .10+  .20+    241201 291  .56+  .03-    241202 291  .38-  .25-    
241201 V00  .37+  .22-    241201 V00  .35-  .19+    241204 V00  .14-  .01+    
241201 V00  .14+  .62+    241201 V00  .08-  .18+    241204 V00  .16-  .19-    
241201 V00  .20-  .03-    241201 V00  .12-  .22+    241204 V00  .40+  .26+    
241201 291  .46-  .29-    241202 291  .03+  .18-    
241201 291  .28+  .39-    241202 291  .04-  .11+    

Ephemerides (geocentric):
Date (UTC) HH   RA             Dec           delta  r     elong  mag " sig PA
---- --------  ------------   ------------  ------ ------ -----  --- --------
2024 12 04 20  06 13 03.882   -05 18 06.64  .07556 1.0483 145.0 23.0 .208 157
2024 12 04 21  06 13 18.462   -05 23 31.98  .07560 1.0483 145.0 23.0 .200 157
2024 12 04 22  06 13 33.025   -05 28 56.84  .07564 1.0483 144.9 23.0 .192 156
2024 12 04 23  06 13 47.571   -05 34 21.22  .07568 1.0482 144.8 23.0 .184 156
2024 12 05 00  06 14 02.102   -05 39 45.12  .07572 1.0482 144.7 23.0 .176 156
2024 12 05 01  06 14 16.616   -05 45 08.53  .07576 1.0482 144.6 23.0 .167 156
2024 12 05 02  06 14 31.113   -05 50 31.45  .07580 1.0481 144.5 23.0 .159 156
2024 12 05 03  06 14 45.594   -05 55 53.89  .07584 1.0481 144.4 23.0 .150 156
2024 12 05 04  06 15 00.059   -06 01 15.83  .07588 1.0481 144.4 23.0 .141 156
2024 12 05 05  06 15 14.506   -06 06 37.28  .07593 1.0480 144.3 23.0 .131 156
2024 12 05 06  06 15 28.938   -06 11 58.23  .07597 1.0480 144.2 23.0 .122 156
2024 12 05 07  06 15 43.353   -06 17 18.69  .07601 1.0480 144.1 23.0 .112 156
2024 12 05 08  06 15 57.751   -06 22 38.64  .07605 1.0479 144.0 23.0 .103 156
2024 12 05 09  06 16 12.132   -06 27 58.08  .07610 1.0479 143.9 23.0 .093 156
2024 12 05 10  06 16 26.497   -06 33 17.02  .07614 1.0479 143.9 23.0 .083 156
2024 12 05 11  06 16 40.846   -06 38 35.46  .07618 1.0478 143.8 23.1 .073 156
2024 12 05 12  06 16 55.177   -06 43 53.38  .07623 1.0478 143.7 23.1 .062 157
2024 12 05 13  06 17 09.492   -06 49 10.79  .07627 1.0478 143.6 23.1 .052 157
2024 12 05 14  06 17 23.790   -06 54 27.68  .07632 1.0478 143.5 23.1 .041 158
2024 12 05 15  06 17 38.071   -06 59 44.06  .07636 1.0477 143.4 23.1 .030 160
2024 12 05 16  06 17 52.335   -07 04 59.91  .07641 1.0477 143.4 23.1 .019 163
2024 12 05 17  06 18 06.583   -07 10 15.25  .07645 1.0477 143.3 23.1 8.5m 176
2024 12 05 18  06 18 20.814   -07 15 30.06  .07650 1.0476 143.2 23.1 4.8m 110
2024 12 05 19  06 18 35.028   -07 20 44.35  .07654 1.0476 143.1 23.1 .015 140
2024 12 05 20  06 18 49.224   -07 25 58.11  .07659 1.0476 143.0 23.1 .027 146
2024 12 05 21  06 19 03.404   -07 31 11.34  .07664 1.0475 142.9 23.1 .039 148
2024 12 05 22  06 19 17.567   -07 36 24.03  .07668 1.0475 142.9 23.1 .051 149
2024 12 05 23  06 19 31.714   -07 41 36.20  .07673 1.0475 142.8 23.1 .063 149
2024 12 06 00  06 19 45.843   -07 46 47.83  .07678 1.0474 142.7 23.1 .075 150
2024 12 06 01  06 19 59.955   -07 51 58.92  .07683 1.0474 142.6 23.1 .087 150
2024 12 06 02  06 20 14.050   -07 57 09.47  .07687 1.0474 142.5 23.1 .100 150
2024 12 06 03  06 20 28.128   -08 02 19.49  .07692 1.0474 142.4 23.1 .113 150
2024 12 06 04  06 20 42.188   -08 07 28.95  .07697 1.0473 142.4 23.1 .125 150
2024 12 06 05  06 20 56.232   -08 12 37.88  .07702 1.0473 142.3 23.1 .138 150
2024 12 06 06  06 21 10.259   -08 17 46.26  .07707 1.0473 142.2 23.1 .152 150
2024 12 06 07  06 21 24.268   -08 22 54.09  .07712 1.0472 142.1 23.1 .165 150
2024 12 06 08  06 21 38.261   -08 28 01.37  .07717 1.0472 142.0 23.1 .178 150
2024 12 06 09  06 21 52.236   -08 33 08.10  .07722 1.0472 142.0 23.1 .192 150
2024 12 06 10  06 22 06.194   -08 38 14.27  .07727 1.0472 141.9 23.1 .206 150
2024 12 06 11  06 22 20.134   -08 43 19.89  .07732 1.0471 141.8 23.1 .220 150
2024 12 06 12  06 22 34.058   -08 48 24.96  .07737 1.0471 141.7 23.1 .234 150
2024 12 06 13  06 22 47.964   -08 53 29.47  .07742 1.0471 141.6 23.1 .248 150
2024 12 06 14  06 23 01.853   -08 58 33.41  .07747 1.0470 141.6 23.1 .262 150
2024 12 06 15  06 23 15.724   -09 03 36.80  .07753 1.0470 141.5 23.1 .277 150
2024 12 06 16  06 23 29.578   -09 08 39.62  .07758 1.0470 141.4 23.1 .291 150
2024 12 06 17  06 23 43.415   -09 13 41.88  .07763 1.0470 141.3 23.2 .306 150
2024 12 06 18  06 23 57.235   -09 18 43.57  .07768 1.0469 141.2 23.2 .321 150
2024 12 06 19  06 24 11.037   -09 23 44.70  .07774 1.0469 141.2 23.2 .336 150